GW0245 Weather Reports


Display with metric or nautical units.
time (UTC)temp
F
wind
direction
speed
MPH
gust
MPH
rain 1hr
in
rain 24hr
in
rain mn
in
humidity
%
barometer
mb
20260510071559 72 238 4.0 9.0 0.00 0.00 0.00 18 1014.6
20260510070101 71 238 2.0 7.0 0.00 0.00 0.00 19 1014.9
20260510064552 74 167 1.0 4.0 0.00 0.00 0.00 17 1014.6
20260510063056 76 0 0.0 4.0 0.00 0.00 0.00 16 1014.3
20260510061556 80 0 2.0 10.0 0.00 0.00 0.00 14 1014.0
20260510060057 80 279 5.0 14.0 0.00 0.00 0.00 13 1013.8
20260510054558 81 270 9.0 15.0 0.00 0.00 0.00 13 1013.6
20260510053056 81 240 8.0 16.0 0.00 0.00 0.00 13 1013.6
20260510051555 81 247 8.0 15.0 0.00 0.00 0.00 12 1013.6
20260510050058 82 241 9.0 16.0 0.00 0.00 0.00 12 1013.6
20260510044558 82 247 8.0 16.0 0.00 0.00 0.00 13 1013.5
20260510043058 82 229 8.0 17.0 0.00 0.00 0.00 13 1013.2
20260510041558 82 252 10.0 19.0 0.00 0.00 0.00 13 1013.2
20260510034604 82 238 8.0 17.0 0.00 0.00 0.00 13 1012.6
20260510033114 83 267 7.0 15.0 0.00 0.00 0.00 13 1012.5
20260510031600 83 230 6.0 14.0 0.00 0.00 0.00 13 1012.2
20260510030058 83 250 9.0 15.0 0.00 0.00 0.00 13 1012.0
20260510024559 84 253 7.0 14.0 0.00 0.00 0.00 13 1011.8
20260510023057 84 230 6.0 13.0 0.00 0.00 0.00 13 1011.6
20260510021557 85 263 7.0 12.0 0.00 0.00 0.00 12 1011.6
20260510020100 85 251 3.0 10.0 0.00 0.00 0.00 12 1011.5
20260510014554 87 225 3.0 9.0 0.00 0.00 0.00 12 1011.3
20260510013059 88 259 7.0 15.0 0.00 0.00 0.00 11 1011.2
20260510011557 89 234 7.0 13.0 0.00 0.00 0.00 11 1011.2
20260510010056 90 248 8.0 16.0 0.00 0.00 0.00 10 1011.0
20260510004600 91 262 8.0 15.0 0.00 0.00 0.00 11 1011.0
20260510003116 91 271 9.0 15.0 0.00 0.00 0.00 10 1011.1
20260510001556 91 282 7.0 17.0 0.00 0.00 0.00 10 1011.2
20260509234611 94 265 7.0 16.0 0.00 0.00 0.00 9 1011.0
20260509233057 95 292 10.0 18.0 0.00 0.00 0.00 9 1011.0
20260509231557 95 220 3.0 15.0 0.00 0.00 0.00 9 1011.0
20260509230108 94 265 3.0 9.0 0.00 0.00 0.00 10 1011.2
20260509224553 95 161 5.0 12.0 0.00 0.00 0.00 10 1011.5
20260509223058 94 200 5.0 14.0 0.00 0.00 0.00 10 1011.4
20260509221555 96 319 5.0 13.0 0.00 0.00 0.00 9 1011.5
20260509220057 96 0 2.0 8.0 0.00 0.00 0.00 8 1011.9
20260509214558 94 281 8.0 18.0 0.00 0.00 0.00 9 1012.1
20260509213102 93 36 4.0 9.0 0.00 0.00 0.00 9 1012.3
20260509211603 93 139 5.0 16.0 0.00 0.00 0.00 10 1012.3
20260509204557 91 180 2.0 10.0 0.00 0.00 0.00 11 1012.9
20260509203059 91 98 7.0 13.0 0.00 0.00 0.00 11 1013.0
20260509201555 94 80 4.0 8.0 0.00 0.00 0.00 10 1013.1
20260509194555 92 71 3.0 11.0 0.00 0.00 0.00 10 1013.5
20260509193056 92 17 5.0 9.0 0.00 0.00 0.00 10 1013.7
20260509191554 92 61 3.0 12.0 0.00 0.00 0.00 11 1014.0
20260509190054 91 63 2.0 8.0 0.00 0.00 0.00 11 1014.2
20260509184556 90 0 2.0 11.0 0.00 0.00 0.00 11 1014.4
20260509183136 89 84 3.0 10.0 0.00 0.00 0.00 12 1014.6
20260509181612 88 37 4.0 9.0 0.00 0.00 0.00 13 1014.7
20260509180101 87 65 4.0 9.0 0.00 0.00 0.00 14 1015.0
20260509174556 86 115 4.0 9.0 0.00 0.00 0.00 13 1015.1
20260509173103 85 76 3.0 9.0 0.00 0.00 0.00 14 1015.2
20260509171559 83 67 3.0 8.0 0.00 0.00 0.00 14 1015.5
20260509170057 82 83 3.0 8.0 0.00 0.00 0.00 15 1015.6
20260509164602 82 50 2.0 7.0 0.00 0.00 0.00 15 1015.6
20260509163101 80 117 1.0 8.0 0.00 0.00 0.00 17 1015.7
20260509161554 79 82 2.0 6.0 0.00 0.00 0.00 16 1016.0
20260509160058 78 59 1.0 6.0 0.00 0.00 0.00 17 1016.1
20260509154557 77 0 3.0 5.0 0.00 0.00 0.00 17 1016.1
20260509153058 76 106 1.0 3.0 0.00 0.00 0.00 18 1016.1
20260509151552 74 0 0.0 3.0 0.00 0.00 0.00 20 1016.2
20260509150054 73 84 0.0 3.0 0.00 0.00 0.00 20 1016.2
20260509144554 72 46 2.0 5.0 0.00 0.00 0.00 20 1016.1
20260509143052 72 33 0.0 2.0 0.00 0.00 0.00 22 1016.0
20260509141609 70 0 0.0 2.0 0.00 0.00 0.00 22 1016.1
20260509140059 69 69 0.0 3.0 0.00 0.00 0.00 23 1015.9
20260509134600 66 0 0.0 1.0 0.00 0.00 0.00 23 1015.7
20260509133053 64 0 0.0 1.0 0.00 0.00 0.00 24 1015.6
20260509131555 60 0 0.0 1.0 0.00 0.00 0.00 30 1015.5
20260509130055 58 0 0.0 2.0 0.00 0.00 0.00 31 1015.3
20260509124556 56 0 0.0 3.0 0.00 0.00 0.00 31 1015.2
20260509123100 56 263 1.0 3.0 0.00 0.00 0.00 31 1015.0
20260509121552 57 263 0.0 3.0 0.00 0.00 0.00 29 1014.9
20260509120059 58 279 1.0 2.0 0.00 0.00 0.00 29 1014.8
20260509114557 58 278 0.0 3.0 0.00 0.00 0.00 28 1014.7
20260509113053 59 0 0.0 3.0 0.00 0.00 0.00 28 1014.6
20260509111552 61 262 1.0 3.0 0.00 0.00 0.00 25 1014.5
20260509110054 63 0 0.0 3.0 0.00 0.00 0.00 23 1014.4
20260509104556 65 136 1.0 3.0 0.00 0.00 0.00 22 1014.3
20260509103052 66 0 0.0 5.0 0.00 0.00 0.00 22 1014.4
20260509101558 67 207 1.0 7.0 0.00 0.00 0.00 21 1014.4
20260509100056 66 154 1.0 7.0 0.00 0.00 0.00 22 1014.4
20260509094555 66 0 0.0 6.0 0.00 0.00 0.00 22 1014.4
20260509093059 66 0 0.0 5.0 0.00 0.00 0.00 22 1014.4
20260509091557 66 188 0.0 4.0 0.00 0.00 0.00 22 1014.5
20260509090056 66 167 1.0 4.0 0.00 0.00 0.00 22 1014.4
20260509084557 66 0 0.0 3.0 0.00 0.00 0.00 23 1014.4
20260509083052 66 0 0.0 1.0 0.00 0.00 0.00 22 1014.3
20260509081555 67 0 0.0 3.0 0.00 0.00 0.00 22 1014.3
20260509080057 67 0 0.0 3.0 0.00 0.00 0.00 22 1014.3
20260509074556 69 0 0.0 3.0 0.00 0.00 0.00 21 1014.3
20260509073055 71 0 0.0 5.0 0.00 0.00 0.00 20 1014.4